Simultaneous Nadir Overpasses (SNOs) Predictions

Prediction of SNOs between FY3D and AQUA Satellite Orbit:

Table of predicted SNOs for the next 14.0 days since TLE Epoch: 4/25/2020
Index Date (FY3D) Time (FY3D) Lat,Lon (FY3D) SZA (FY3D ) Date (AQUA) Time (AQUA) Lat,Lon (AQUA) SZA (AQUA ) Distance(km) Time Diff (sec)
1 04/25/2020 20:25:00 -65.95, -83.72 85.58 04/25/2020 20:25:32 -65.95, -83.70 85.62 0.90 32
2 04/25/2020 21:14:23 70.27, 89.14 89.95 04/25/2020 21:13:40 70.26, 89.08 90.02 2.48 43
3 04/28/2020 12:41:32 -65.51, 31.73 85.97 04/28/2020 12:42:08 -65.51, 31.76 86.02 1.16 36
4 04/28/2020 13:30:52 70.00,-155.36 89.38 04/28/2020 13:30:13 69.99,-155.42 89.45 2.51 39
5 05/01/2020 04:58:02 -65.18, 147.31 86.45 05/01/2020 04:58:42 -65.18, 147.33 86.50 0.98 40
6 05/01/2020 05:47:36 68.93, -41.00 89.69 05/01/2020 05:47:00 68.94, -40.95 89.71 2.10 36
7 05/03/2020 21:14:30 -64.95, -97.01 87.00 05/03/2020 21:15:14 -64.95, -97.00 87.05 0.37 44
8 05/03/2020 22:04:01 68.87, 74.83 88.97 05/03/2020 22:03:29 68.88, 74.86 88.99 1.18 32
9 05/06/2020 13:30:54 -64.89, 18.84 87.68 05/06/2020 13:31:42 -64.89, 18.83 87.73 0.70 48




NCC Satellite Simultaneous Nadir Overpasses (SNOs) Prediction Service
